www.pogodaiklimat.ru

Погода и климат >> Архив погоды >> Россия >> Красноярский край >> Остров Диксон


АРХИВ ПОГОДЫ на Острове Диксон

Время (UTC), дата Ветер
(напр.,м/с)
 
Видим.   Явления Облачность Т
(С)
Тd
(С)
f
(%)
Тe
(С)
Тes
(С)
Комфортность P
(гПа)
Po
(гПа)
Тmin
(С)
Tmax
(С)
R
(мм)
R24
(мм)
S
(см)
21 19.03 СВ 4 20 км {метель} 10/10 360 м
[Sc]
-10.7 -12.0 90 -18 -18 тепло 1016.7 1010.6
00 20.03 СВ 3 20 км {метель} 10/10 330 м
[Sc]
-11.2 -12.5 90 -17 -17 тепло 1015.8 1009.7 -11.2 0.0 81
03 20.03 В 1 20 км 10/10 360 м
[Sc]
-10.0 -11.2 91 -12 -12 тепло 1015.3 1009.2
06 20.03 Ю 3 20 км 10/10 400 м
[Sc]
-8.8 -9.8 92 -15 -15 тепло 1014.0 1007.9
09 20.03 Ю 5 20 км 10/10 360 м
[Sc]
-8.2 -9.2 92 -16 -16 тепло 1012.5 1006.4
12 20.03 Ю 6 20 км позёмок 10/10 400 м
[Sc]
-8.2 -9.3 92 -17 -17 тепло 1010.6 1004.6 -8.1
15 20.03 ЮВ 4 4000 м слаб. ливневой снег {метель} 9/9 300 м
[Cb cap]
-7.9 -9.0 92 -15 -15 тепло 1008.9 1002.9
18 20.03 ЮВ 3 4000 м слаб. ливневой снег {метель} 9/8 420 м
[Cb cap Ci fib]
-8.0 -9.1 92 -14 -14 тепло 1006.4 1000.4
21 20.03 В 5 4000 м слаб. ливневой снег 9/9 420 м
[Cb cap]
-8.1 -9.2 92 -16 -16 тепло 1004.0 998.0
00 21.03 СВ 4 4000 м слаб. ливневой снег 9/6 450 м
[Cb cap Ci fib]
-10.5 -11.8 90 -18 -18 тепло 1002.4 996.3 -10.5 1 81
03 21.03 СВ 8 20 км позёмок {ливн. осадки} 9/0
[Ac trans Ci fib]
-12.9 -14.4 88 -23 -23 по сезону 1001.2 995.1 -13.2
06 21.03 СВ 5 20 км позёмок {ливн. осадки} 6/0
[Ci fib]
-13.1 -14.7 88 -21 -20 тепло 1001.1 995.0
09 21.03 СВ 7 20 км позёмок 4/0
[Ci fib]
-13.0 -14.5 88 -23 -22 по сезону 1001.8 995.7
12 21.03 СВ 6
{10}
20 км позёмок 6/6 210 м
[St]
-15.4 -17.2 86 -25 -25 по сезону 1003.2 997.0 -10.5 0.0
15 21.03 СВ 8 20 км позёмок 8/0
[Ac trans]
-12.2 -13.6 89 -22 -22 тепло 1004.3 998.2
18 21.03 СВ 6 20 км позёмок 4/0
[Ac trans Ci sp]
-15.2 -17.0 86 -25 -25 по сезону 1005.9 999.7
21 21.03 СВ 5 20 км {метель} 3/0
[Ac trans]
-20.3 -22.7 81 -30 -30 по сезону 1007.5 1001.2
00 22.03 В 4 20 км {метель} ясно -22.1 -24.5 81 -32 -32 опасность
обморожения
1009.1 1002.8 -22.7 80
06 22.03 СВ 4 20 км 4/0
[Ci fib]
-22.8 -25.5 79 -32 -31 опасность
обморожения
1011.7 1005.3
09 22.03 В 3 20 км 4/0
[Ci fib]
-22.1 -24.7 79 -30 -29 по сезону 1012.8 1006.4
12 22.03 Ю 5 20 км 3/0
[Ci fib]
-18.7 -20.9 83 -28 -28 по сезону 1013.6 1007.3 -18.5
15 22.03 Ю 6 20 км позёмок 3/0
[Ci fib]
-22.9 -25.5 79 -35 -35 опасность
обморожения
1014.6 1008.2
18 22.03 Ю 7 20 км позёмок ясно -21.9 -24.4 80 -34 -34 опасность
обморожения
1014.2 1007.8
21 22.03 Ю 5
{10}
20 км {метель} 3/0
[Ci fib]
-23.3 -26.1 78 -34 -34 опасность
обморожения
1014.4 1008.0
00 23.03 Ю 6
{10}
20 км позёмок 3/0
[Ci fib]
-23.3 -26.0 78 -35 -35 опасность
обморожения
1013.2 1006.8 -23.5 80
03 23.03 Ю 6
{12}
20 км позёмок 4/0
[Ci fib]
-22.6 -25.2 79 -34 -34 опасность
обморожения
1012.4 1006.0
06 23.03 Ю 8-12
{12}
20 км позёмок 5/0
[Ci fib]
-18.9 -21.1 83 -31 -31 опасность
обморожения
1010.7 1004.4
09 23.03 Ю 8-13
{13}
4000 м позёмок 6/0
[Ci fib]
-17.4 -19.5 84 -29 -29 по сезону 1009.1 1002.9
12 23.03 Ю 11-14
{14}
4000 м метель 9/0
[Ac trans Ci fib]
-17.9 -20.1 83 -31 -31 опасность
обморожения
1007.8 1001.6 -17.0
15 23.03 Ю 10-14
{14}
4000 м метель 9/0
[Ac trans Ci fib]
-18.2 -20.4 83 -31 -31 опасность
обморожения
1007.0 1000.8
18 23.03 Ю 11-15
{15}
4000 м метель 9/0
[Ac trans]
-18.0 -20.0 84 -31 -31 опасность
обморожения
1006.2 1000.0
21 23.03 Ю 11-14
{16}
4000 м метель 8/0
[Ac trans Ci fib]
-17.0 -19.1 84 -30 -30 по сезону 1005.4 999.2
00 24.03 Ю 11-15
{16}
1000 м слаб. снег {метель} 10/0
[As op]
-14.9 -16.7 86 -27 -27 по сезону 1004.5 998.3 -19.2 0.0 81
03 24.03 Ю 10-14
{15}
4000 м слаб. снег {метель} 10/0
[As op]
-12.0 -13.4 89 -23 -23 по сезону 1004.6 998.5
06 24.03 Ю 13-17
{18}
1000 м слаб. снег {метель} 10/0
[As op]
-10.0 -11.3 90 -22 -22 по сезону 1003.6 997.5
09 24.03 Ю 13-17
{17}
1000 м слаб. снег {метель} 10/0
[As op]
-9.0 -10.2 91 -21 -21 тепло 1003.7 997.7
12 24.03 Ю 12-17
{17}
1000 м слаб. снег {метель} 10/0
[As op]
-8.2 -9.3 92 -19 -19 тепло 1002.7 996.7 -8.2 3
15 24.03 Ю 15-21
{21}
1000 м метель {снег} 10/0
[Ac und]
-8.5 -9.6 92 -21 -21 тепло 1000.0 994.0
18 24.03 Ю 15-20
{22}
500 м сильная метель ?/? -8.6 -9.7 92 -21 -21 тепло 997.6 991.6
21 24.03 Ю 16-21
{22}
500 м сильная метель ?/? -7.7 -8.8 92 -20 -20 тепло 995.8 989.9
00 25.03 Ю 15-19
{23}
500 м сильная метель ?/? -7.5 -8.4 93 -20 -20 тепло 994.8 988.9 -8.6 3 83
03 25.03 Ю 12-16
{19}
2000 м снег {метель} 10/10 180 м
[Frnb Ns]
-4.4 -5.0 96 -15 -15 тепло 995.2 989.3
06 25.03 ЮЗ 13-18
{19}
2000 м сильная метель 9/9 330 м
[Sc]
-2.7 -3.3 96 -13 -13 тепло 996.2 990.4
09 25.03 ЮЗ 10-14
{18}
10 км метель 10/10 330 м
[Sc]
-2.4 -3.2 94 -12 -12 тепло 998.5 992.7
12 25.03 ЮЗ 7-11
{16}
20 км позёмок {ливн. осадки} 10/10 400 м
[Sc]
-2.2 -3.5 91 -10 -10 тепло 1000.3 994.5 -2.2 3
15 25.03 ЮЗ 7-10
{14}
20 км позёмок 10/10 450 м
[Sc]
-2.3 -3.1 94 -10 -10 тепло 1001.6 995.7
18 25.03 Ю 9-12
{14}
10 км слаб. ливневой снег {метель} 10/10 300 м
[Cb cap]
-2.3 -3.0 95 -11 -11 тепло 1002.7 996.8
21 25.03 ЮЗ 8-11
{12}
200 м туман {ливн. осадки} ?/? -1.8 -1.8 100 -10 -10 тепло 1003.2 997.3
00 26.03 Ю 6
{11}
4000 м позёмок {ливн. осадки, туман} 10/10 270 м
[St]
-3.3 -3.7 97 -11 -11 тепло 1003.7 997.8 -3.3 0.2 80
03 26.03 Ю 7-10
{10}
4000 м слаб. ливневой снег {метель} 10/10 360 м
[Cb cap]
-3.3 -3.8 96 -11 -11 тепло 1004.6 998.7 -3.6
06 26.03 ЮЗ 7-10
{11}
4000 м позёмок {ливн. осадки} 10/10 360 м
[Sc]
-2.2 -2.5 98 -10 -10 тепло 1005.8 999.9
09 26.03 Ю 7
{12}
20 км позёмок 10/10 400 м
[Sc]
-2.5 -2.9 97 -10 -10 тепло 1007.6 1001.7
12 26.03 Ю 7-10
{10}
4000 м слаб. ливневой снег {метель} 10/10 180 м
[Cb cap]
-4.7 -5.2 96 -13 -13 тепло 1008.3 1002.4 -2.0 0.7
15 26.03 Ю 9-12
{12}
2000 м слаб. ливневой снег {метель} 10/10 120 м
[Cb cap]
-4.7 -5.3 96 -14 -14 тепло 1006.0 1000.1
18 26.03 Ю 12-16
{17}
2000 м метель {ливн. осадки} 10/10 180 м
[St]
-4.9 -5.5 96 -15 -15 тепло 1002.7 996.8

 

Местоположение метеостанции Остров Диксон (Красноярский край, Россия): широта 73.52 долгота 80.40 высота над уровнем моря 56 м.

В архиве по умолчанию представлена погода на Острове Диксон за последнюю неделю. Архивные данные за месяц целиком и за предыдущие месяцы, начиная с января 2011 года, Вы можете получить, выбрав интересующий диапазон дат из раскрывающегося списка и нажав кнопку "Ввод!".


*Определитесь, кто Вы:
робот инопланетянин человек

Внимание! Время в таблицах - всемирное. Для получения местного времени необходимо прибавить поправку, которая равна 7 ч.

Смотрите также архив погоды в соседних городах и на ближайших метеорологических станциях:

Погода в Сопочной Карге (Красноярский край, Россия) (199 км)
Погода на Островах Известий ЦИК (Красноярский край, Россия) (280 км)
Погода в Гыде (Ямало-Ненецкий АО, Россия) (301 км)
Погода на Мысе Стерлегова (Красноярский край, Россия) (329 км)
Погода в Имени Попова (Ямало-Ненецкий АО, Россия) (329 км)
Погода в Тамбее (Ямало-Ненецкий АО, Россия) (365 км)
Погода в Карауле (Красноярский край, Россия) (394 км)
Погода в Крестах Таймырских (Красноярский край, Россия) (437 км)
Погода на Острове Уединения (Красноярский край, Россия) (446 км)
Погода в Сеяхе (Ямало-Ненецкий АО, Россия) (461 км)

Пояснения к столбцам:

Ветер - указаны скорость ветра в м/с - средняя за 10 мин, порывы в срок и между сроками (в фигурных скобках) и направление, откуда дует ветер: С - северный, СВ - северо-восточный, В - восточный, ЮВ - юго-восточный, Ю - южный, ЮЗ - юго-западный, З - западный, СЗ - северо-западный.
Видимость - горизонтальная дальность видимости в метрах или километрах. При видимости от 1 до 10 км при отсутствии осадков обычно наблюдается дымка, при ухудшении видимости до 1 км и менее - туман. В сухую погоду видимость может ухудшаться дымом, пылью или мглою.
Явления - указаны атмосферные явления, наблюдавшиеся в срок или в последний час перед сроком; фигурными скобками обозначены явления, наблюдавшиеся между сроками (за 1-3 часа до срока); квадратными скобками обозначены град или гололедные отложения с указанием их диаметра в мм.
Облачность - указаны через наклонную черту общая и нижняя облачность в баллах и высота нижней границы облаков в метрах; квадратными скобками обозначены формы облаков: Ci - перистые, Cs - перисто-слоистые, Cc - перисто-кучевые, Ac - высококучевые, As - высокослоистые, Sc - слоисто-кучевые, Ns - слоисто-дождевые, Cu - кучевые, Cb - кучево-дождевые. Подробнее классификацию облаков см. в Атласе облаков (PDF).
T - Температура воздуха - температура, измеренная на высоте 2 м над землей.
Td - Температура точки росы - температура, при понижении до которой содержащийся в воздухе водяной пар достигнет насыщения.
f - Относительная влажность воздуха - влажноcть воздуха, измеренная на высоте 2 м над землей.
Te - Эффективная температура - температура, которую ощущает одетый по сезону человек в тени. Характеристика душности погоды. При расчете учитывается влияние влажности воздуха и скорости ветра на теплоощущения человека.
Tes - Эффективная температура на солнце - температура, которую ощущает человек, с поправкой на солнечный нагрев. Характеристика знойности погоды. Зависит от высоты солнца над горизонтом, облачности и скорости ветра. Ночью, в пасмурную погоду, а также при ветре 12 м/с и более поправка равна нулю.
P - Атмосферное давление - приведенное к уровню моря атмосферное давление.
Po - Атмосферное давление - измеренное на уровне метеостанции атмосферное давление.
Tmin - Минимальная температура - минимум температуры воздуха на высоте 2 м над землей.
Tmax - Максимальная температура - максимум температуры воздуха на высоте 2 м над землей.
R - Количество осадков - Количество выпавших осадков за период времени, мм. При наведении курсора мыши на число - период времени, за который выпало указанное количество осадков.
R24 - Количество осадков - Количество выпавших осадков за 24 часа, мм.
S - Снежный покров - Высота снежного покрова, см. При наведении курсора мыши на число - состояние снежного покрова и степень покрытия местности в баллах.